Weather History for Sault Ste Marie, MI

Change the Weather History Date:

Friday, September 20, 2013

  Actual Average Record
Temperature  
Mean Temperature 63 °F 56 °F  
Max Temperature 70 °F 65 °F 85 °F (1914)
Min Temperature 56 °F 46 °F 30 °F (1981)
Degree Days  
Heating Degree Days 2 10  
Month to date heating degree days 147 137  
Since 1 July heating degree days 263 284  
Cooling Degree Days 0 0  
Month to date cooling degree days 14 15  
Year to date cooling degree days 266 193  
Growing Degree Days 14 (Base 50)    
Moisture  
Dew Point 62 °F    
Average Humidity 92    
Maximum Humidity 100    
Minimum Humidity 84    
Precipitation  
Precipitation 0.72 in 0.13 in 0.91 in (1978)
Month to date precipitation 6.55 2.50  
Year to date precipitation 34.84 21.67  
Sea Level Pressure  
Sea Level Pressure 29.65 in    
Wind  
Wind Speed 9 mph (SW)    
Max Wind Speed 17 mph    
Max Gust Speed 24 mph    
Visibility 7 miles    
Events Fog , Rain    
T = Trace of Precipitation, MM = Missing Value Source: NWS Daily Summary

Daily Weather History Graph

Daily Weather History Graph

Search for Another Location

Airport:

Trip Planner

Search our weather history database for the weather conditions in past years. The results will help you decide how hot, cold, wet, or windy it might be!

Date:

Astronomy

Sep. 20, 2013 Rise Set
Actual Time 7:22 AM EDT 7:38 PM EDT
Civil Twilight 6:51 AM EDT 8:08 PM EDT
Nautical Twilight 6:16 AM EDT 8:44 PM EDT
Astronomical Twilight 5:39 AM EDT 9:20 PM EDT
Moon 8:03 PM EDT (9/20) 8:42 AM EDT (9/20)
Length of Visible Light 13h 16m
Length of Day
12h 16m
Full, 98% of the Moon is Illuminated
Sep 20
Full
Sep 26
Last Quarter
Oct 4
New
Oct 11
First Quarter
Oct 18
Full

Hourly Weather History & Observations

Time (EDT) Temp. Dew Point Humidity Pressure Visibility Wind Dir Wind Speed Gust Speed Precip Events Conditions
12:53 AM 66.2 °F 62.6 °F 88% 29.76 in 8.0 mi SE 8.1 mph - N/A   Overcast
12:55 AM 66.0 °F 63.0 °F 90% 29.75 in 8.0 mi SE 9.2 mph - N/A   Overcast
1:55 AM 66.9 °F 64.0 °F 90% 29.73 in 9.0 mi SE 4.6 mph - 0.00 in Rain Light Rain
2:30 AM 66.9 °F 64.0 °F 90% 29.73 in 6.0 mi SE 9.2 mph - 0.03 in Rain Light Rain
2:55 AM 66.9 °F 64.9 °F 93% 29.72 in 8.0 mi SSE 8.1 mph - 0.04 in   Overcast
3:45 AM 66.0 °F 64.0 °F 93% 29.71 in 7.0 mi SE 5.8 mph - N/A   Overcast
3:52 AM 66.2 °F 64.4 °F 94% 29.70 in 6.0 mi ESE 4.6 mph - N/A   Overcast
3:55 AM 66.0 °F 64.0 °F 93% 29.68 in 6.0 mi ESE 4.6 mph - N/A   Overcast
4:15 AM 66.0 °F 64.0 °F 93% 29.69 in 5.0 mi SE 6.9 mph - 0.00 in   Overcast
4:31 AM 64.9 °F 64.0 °F 97% 29.69 in 5.0 mi ESE 8.1 mph - 0.00 in   Overcast
4:40 AM 64.9 °F 64.0 °F 97% 29.68 in 5.0 mi ESE 6.9 mph - 0.00 in   Overcast
4:55 AM 64.9 °F 64.0 °F 97% 29.67 in 5.0 mi ESE 8.1 mph - 0.00 in   Overcast
5:10 AM 64.9 °F 64.0 °F 97% 29.67 in 6.0 mi ESE 9.2 mph - N/A   Overcast
5:55 AM 66.0 °F 64.0 °F 93% 29.66 in 8.0 mi SSE 8.1 mph - N/A   Overcast
6:55 AM 66.9 °F 64.0 °F 90% 29.64 in 10.0 mi SSE 6.9 mph - N/A   Overcast
7:55 AM 66.0 °F 64.0 °F 93% 29.65 in 8.0 mi SSE 6.9 mph - N/A   Overcast
8:04 AM 66.0 °F 64.0 °F 93% 29.65 in 8.0 mi SSE 6.9 mph - N/A   Overcast
8:21 AM 66.0 °F 64.0 °F 93% 29.65 in 7.0 mi SSE 6.9 mph - N/A   Overcast
8:37 AM 66.0 °F 64.0 °F 93% 29.65 in 7.0 mi SE 5.8 mph - N/A   Overcast
8:55 AM 66.0 °F 64.0 °F 93% 29.64 in 8.0 mi SSE 5.8 mph - N/A   Overcast
9:55 AM 66.9 °F 64.0 °F 90% 29.62 in 5.0 mi SSE 6.9 mph - 0.00 in Rain Light Rain
10:32 AM 66.9 °F 64.9 °F 93% 29.63 in 1.2 mi South 8.1 mph - 0.01 in Rain Heavy Rain
10:41 AM 66.9 °F 64.9 °F 93% 29.63 in 0.5 mi SSW 9.2 mph - 0.19 in Fog , Rain Heavy Rain
10:55 AM 66.9 °F 64.9 °F 93% 29.62 in 0.8 mi WSW 5.8 mph - 0.35 in Rain Heavy Rain
11:06 AM 66.9 °F 64.9 °F 93% 29.64 in 0.8 mi SSW 6.9 mph - 0.11 in Rain Heavy Rain
11:13 AM 66.9 °F 64.9 °F 93% 29.63 in 1.8 mi SSW 9.2 mph - 0.14 in Rain Rain
11:18 AM 66.9 °F 64.9 °F 93% 29.63 in 3.0 mi SSW 9.2 mph - 0.14 in Rain Light Rain
11:23 AM 66.9 °F 64.9 °F 93% 29.63 in 4.0 mi SW 9.2 mph - 0.15 in Rain Light Rain
11:36 AM 66.9 °F 64.9 °F 93% 29.63 in 5.0 mi SW 10.4 mph - 0.16 in Rain Light Rain
11:55 AM 68.0 °F 64.9 °F 90% 29.62 in 7.0 mi WSW 10.4 mph - 0.17 in Rain Light Rain
12:34 PM 68.0 °F 64.9 °F 90% 29.64 in 10.0 mi WSW 6.9 mph - 0.00 in   Overcast
12:55 PM 69.1 °F 66.0 °F 90% 29.63 in 10.0 mi WSW 11.5 mph 17.3 mph 0.00 in   Overcast
1:04 PM 69.1 °F 64.9 °F 87% 29.65 in 10.0 mi WSW 11.5 mph - N/A   Overcast
1:32 PM 70.0 °F 64.9 °F 84% 29.64 in 10.0 mi WSW 8.1 mph - N/A   Overcast
1:40 PM 70.0 °F 64.9 °F 84% 29.63 in 10.0 mi SW 6.9 mph - N/A   Overcast
1:55 PM 70.0 °F 64.9 °F 84% 29.62 in 10.0 mi SW 8.1 mph - N/A   Overcast
2:19 PM 70.0 °F 64.9 °F 84% 29.62 in 10.0 mi SW 8.1 mph - N/A   Overcast
2:55 PM 69.1 °F 64.9 °F 87% 29.60 in 10.0 mi SW 6.9 mph - N/A   Overcast
3:17 PM 69.1 °F 64.9 °F 87% 29.61 in 10.0 mi SSW 4.6 mph - N/A   Overcast
3:55 PM 64.9 °F 61.0 °F 87% 29.60 in 10.0 mi WNW 6.9 mph - 0.00 in Rain Light Rain
4:18 PM 64.0 °F 62.1 °F 93% 29.62 in 2.0 mi West 8.1 mph - 0.02 in Rain Heavy Rain
4:22 PM 64.0 °F 62.1 °F 93% 29.62 in 1.2 mi WNW 9.2 mph - 0.03 in Rain Rain
4:30 PM 64.0 °F 62.1 °F 93% 29.62 in 0.8 mi WNW 8.1 mph - 0.13 in Rain Heavy Rain
4:33 PM 64.0 °F 62.1 °F 93% 29.62 in 1.0 mi NW 6.9 mph - 0.14 in Rain Heavy Rain
4:37 PM 64.0 °F 62.1 °F 93% 29.62 in 2.0 mi WNW 8.1 mph - 0.15 in Rain Light Rain
4:46 PM 64.0 °F 62.1 °F 93% 29.63 in 5.0 mi WNW 5.8 mph - 0.16 in Rain Light Rain
4:55 PM 64.0 °F 62.1 °F 93% 29.62 in 10.0 mi Variable 4.6 mph - 0.16 in Rain Light Rain
5:08 PM 64.0 °F 62.1 °F 93% 29.63 in 10.0 mi WNW 6.9 mph - 0.00 in Rain Light Rain
5:12 PM 64.0 °F 62.1 °F 93% 29.63 in 10.0 mi WNW 6.9 mph - 0.00 in   Overcast
5:55 PM 63.0 °F 61.0 °F 93% 29.63 in 9.0 mi WNW 12.7 mph 19.6 mph 0.00 in   Overcast
6:16 PM 62.1 °F 60.1 °F 93% 29.64 in 5.0 mi WNW 9.2 mph 19.6 mph N/A   Overcast
6:36 PM 62.1 °F 60.1 °F 93% 29.64 in 9.0 mi WNW 8.1 mph - 0.00 in   Overcast
6:55 PM 62.1 °F 59.0 °F 90% 29.63 in 10.0 mi NW 11.5 mph - 0.00 in   Overcast
7:55 PM 61.0 °F 59.0 °F 93% 29.65 in 10.0 mi WNW 11.5 mph 17.3 mph N/A   Overcast
8:47 PM 60.1 °F 57.9 °F 93% 29.67 in 10.0 mi WNW 6.9 mph - N/A   Overcast
8:55 PM 60.1 °F 57.9 °F 93% 29.67 in 10.0 mi WNW 5.8 mph - N/A   Overcast
9:08 PM 61.0 °F 57.0 °F 87% 29.68 in 10.0 mi WNW 9.2 mph - N/A   Overcast
9:48 PM 59.0 °F 55.0 °F 87% 29.68 in 10.0 mi WNW 10.4 mph 19.6 mph N/A   Overcast
9:55 PM 59.0 °F 55.0 °F 87% 29.68 in 10.0 mi WNW 11.5 mph - N/A   Overcast
10:10 PM 59.0 °F 55.0 °F 87% 29.68 in 10.0 mi WNW 9.2 mph 21.9 mph N/A   Overcast
10:48 PM 57.9 °F 54.0 °F 87% 29.69 in 10.0 mi NW 10.4 mph - N/A   Overcast
10:55 PM 57.9 °F 53.1 °F 84% 29.68 in 10.0 mi WNW 13.8 mph - N/A   Overcast
11:55 PM 55.9 °F 51.1 °F 84% 29.68 in 10.0 mi NW 13.8 mph 23.0 mph N/A   Overcast